User: anonymous   Login
Location: Berg
(47.2344°N, 9.5296°E)
Time: 00:38:02
(UTC+00:00)
Language:

Meteor 2-5 Rocket - Orbit

View from above orbital plane
View from above orbital plane
View from above satellite
View from above satellite

Ground track
Ground track

The orbit data is extracted from the following two-line orbital elements,

1 11608U 79095B   21104.52847934 -.00000008  00000-0 -12214-4 0  9990
2 11608  81.2104 294.9435 0054026 195.7585 164.1905 14.06172284126210
Epoch (UTC): 14 April 2021 12:41:00
Eccentricity: 0.0054026
inclination: 81.2104°
perigee height: 833 km
apogee height: 911 km
right ascension of ascending node: 294.9435°
argument of perigee: 195.7585°
revolutions per day: 14.06172284
mean anomaly at epoch: 164.1905°
orbit number at epoch: 12621

The dashed part of the orbit path shows where the satellite is in the earth's shadow,  

DLR